User: anonymous   Login
Location: Mentone
(34.5413°N, 85.5351°W)
Time: 13:04:19
(UTC-06:00)
Language:

ATLAS 5 CENTAUR R/B - Orbit

View from above orbital plane
View from above orbital plane
View from above satellite
View from above satellite

Ground track
Ground track

The orbit data is extracted from the following two-line orbital elements,

1 31702U 07027B   17345.24962298 0.00000200  00000-0  61780-4 0    02
2 31702  63.3622  66.8392 0298000   5.8964 354.1036 14.18601933    00
Epoch (UTC): 11 December 2017 05:59:27
Eccentricity: 0.0298000
inclination: 63.3622°
perigee height: 615 km
apogee height: 1045 km
right ascension of ascending node: 66.8392°
argument of perigee: 5.8964°
revolutions per day: 14.18601933
mean anomaly at epoch: 354.1036°
orbit number at epoch: 0

The dashed part of the orbit path shows where the satellite is in the earth's shadow,  

DLR